Hourly Data Report for October 01, 2019

All times are specified in Local Standard Time (LST). Add 1 hour to adjust for Daylight Saving Time where and when it is observed.

ABBOTSFORD A
BRITISH COLUMBIA
Current Station Operator: NAVCAN

49°01'31.000" N
122°21'36.000" W
59.10 m
1100031
71108
YXX

Download Data

Hourly Data (October 2019)
Hourly Data Report for October 1, 2019
TIME Temp Definition
°C
Dew Point Definition
°C
Rel Hum Definition
%
Wind Dir Definition
10's deg

Wind Spd Definition
km/h
Visibility Definition
km
Stn Press Definition
kPa
Hmdx Definition


Wind Chill Definition


Weather Definition


00:00 3.6 1.5 86 31 3 24.1 101.46     LegendNANA
01:00 3.9 1.3 83 36 1 24.1 101.48     Clear
02:00 4.0 2.1 88 4 7 24.1 101.47     LegendNANA
03:00 4.3 2.5 88 1 4 24.1 101.47     LegendNANA
04:00 4.8 2.1 83 36 8 24.1 101.46     Mainly Clear
05:00 5.2 2.3 81 36 3 24.1 101.50     LegendNANA
06:00 3.6 2.1 90 23 8 48.3 101.52     LegendNANA
07:00 5.0 2.7 85 6 3 48.3 101.56     Mostly Cloudy
08:00 7.0 4.6 85 2 5 48.3 101.57     LegendNANA
09:00 9.7 5.4 75 0 1 48.3 101.58     LegendNANA
10:00 11.7 4.5 61 13 4 48.3 101.55     Mostly Cloudy
11:00 12.8 2.4 49 22 9 48.3 101.52     LegendNANA
12:00 13.2 2.9 50 22 7 48.3 101.48     LegendNANA
13:00 13.3 2.7 48 25 7 48.3 101.43     Mostly Cloudy
14:00 14.4 3.9 49 29 6 48.3 101.40     LegendNANA
15:00 14.5 4.4 50 23 5 48.3 101.33     LegendNANA
16:00 14.7 4.1 49 23 11 48.3 101.29     Mainly Clear
17:00 13.9 3.2 48 20 9 48.3 101.28     LegendNANA
18:00 12.5 4.3 57 36 2 48.3 101.25     LegendNANA
19:00 9.9 5.0 71 31 4 24.1 101.28     Mainly Clear
20:00 8.6 4.7 76 16 5 24.1 101.30     LegendNANA
21:00 8.6 4.9 77 36 1 24.1 101.28     LegendNANA
22:00 7.5 4.7 82 2 4 24.1 101.27     Mostly Cloudy
23:00 7.5 4.7 82 32 4 24.1 101.27     LegendNANA

Notes on Data Quality.

Legend

  • E = Estimated
  • M = Missing
  • NA = Not Available
Date modified: